SBI7520 UTAA-LTFG

Flight info

Callsign SBI7520
Flight time N/A
Altitude 36000
Route UTAA N0440F360 MAM29D MAMED B449 DUKAN N449 INDUR UN161 ERZ UL615 SIV UA285 MUT UT339 ELROP ELRO1D ROKDU BEPTO EVBUM MA08 RW08 LTFG
Aircraft B738/M-SDGIWZ/S

Departure

Time N/A
Airport Ashgabat International Airport (UTAA)

Arrival

Time 2026-05-06 06:20
Airport Gazipaşa-Alanya Airport (LTFG)
Time Latitude Longitude Altitude Speed Heading
2026-05-06 05:40 38.73965 35.50479 36075 ft 415 kts 226°
2026-05-06 05:40 38.70093 35.45535 36073 ft 416 kts 226°
2026-05-06 05:41 38.66293 35.40649 36074 ft 415 kts 227°
2026-05-06 05:41 38.62510 35.35774 36075 ft 414 kts 227°
2026-05-06 05:42 38.55310 35.26546 36075 ft 416 kts 226°
2026-05-06 05:42 38.51202 35.21434 36073 ft 415 kts 223°
2026-05-06 05:43 38.45993 35.15957 36075 ft 418 kts 221°
2026-05-06 05:43 38.42284 35.11986 36075 ft 416 kts 221°
2026-05-06 05:44 38.37158 35.06470 36074 ft 416 kts 222°
2026-05-06 05:44 38.33622 35.02333 36076 ft 416 kts 225°
2026-05-06 05:45 38.29450 34.97242 36081 ft 418 kts 225°
2026-05-06 05:45 38.24506 34.91334 36087 ft 420 kts 225°
2026-05-06 05:46 38.20238 34.86220 36093 ft 421 kts 225°
2026-05-06 05:46 38.15974 34.81115 36099 ft 424 kts 225°
2026-05-06 05:47 38.12421 34.76845 36100 ft 425 kts 225°
2026-05-06 05:47 38.08165 34.71722 36101 ft 424 kts 225°
2026-05-06 05:48 38.03875 34.66604 36101 ft 424 kts 225°
2026-05-06 05:48 37.99592 34.61511 36101 ft 424 kts 225°
2026-05-06 05:49 37.95319 34.56399 36101 ft 424 kts 225°
2026-05-06 05:49 37.91026 34.51284 36101 ft 424 kts 225°
2026-05-06 05:50 37.86007 34.45348 36100 ft 425 kts 225°
2026-05-06 05:50 37.82458 34.41102 36100 ft 424 kts 225°
2026-05-06 05:51 37.78151 34.35989 36102 ft 424 kts 225°
2026-05-06 05:51 37.73143 34.30069 36094 ft 424 kts 224°
2026-05-06 05:52 37.68876 34.25007 36084 ft 424 kts 224°
2026-05-06 05:52 37.65301 34.20777 36082 ft 424 kts 224°
2026-05-06 05:53 37.60988 34.15698 36083 ft 424 kts 224°
2026-05-06 05:53 37.56693 34.10665 36086 ft 424 kts 224°
2026-05-06 05:54 37.51665 34.04754 36077 ft 425 kts 224°
2026-05-06 05:54 37.48095 34.00546 36074 ft 424 kts 224°
2026-05-06 05:55 37.43792 33.95507 36074 ft 424 kts 224°
2026-05-06 05:55 37.38742 33.89614 36087 ft 424 kts 224°
2026-05-06 05:56 37.35139 33.85422 36095 ft 423 kts 224°
2026-05-06 05:56 37.30103 33.79604 36101 ft 424 kts 224°
2026-05-06 05:57 37.26516 33.75442 36098 ft 424 kts 224°
2026-05-06 05:57 37.21484 33.69603 36093 ft 424 kts 224°
2026-05-06 05:58 37.17132 33.64584 35931 ft 421 kts 224°
2026-05-06 05:58 37.15730 33.62966 35535 ft 419 kts 224°
2026-05-06 05:58 37.13593 33.60495 34858 ft 418 kts 224°
2026-05-06 05:59 37.11480 33.58054 34140 ft 417 kts 224°
2026-05-06 05:59 37.09345 33.55584 33390 ft 417 kts 224°
2026-05-06 05:59 37.07245 33.53154 32723 ft 414 kts 224°
2026-05-06 05:59 37.05146 33.50734 32190 ft 409 kts 224°
2026-05-06 06:00 37.03044 33.48317 31636 ft 409 kts 224°
2026-05-06 06:00 37.00254 33.45124 30881 ft 407 kts 223°
2026-05-06 06:00 36.98190 33.42767 30323 ft 402 kts 223°
2026-05-06 06:00 36.96830 33.41215 29954 ft 399 kts 223°
2026-05-06 06:01 36.94143 33.38151 29220 ft 393 kts 223°
2026-05-06 06:01 36.92149 33.35870 28675 ft 388 kts 223°
2026-05-06 06:01 36.90167 33.33599 28140 ft 384 kts 223°
2026-05-06 06:01 36.88202 33.31315 27599 ft 389 kts 224°
2026-05-06 06:02 36.86361 33.28889 27059 ft 385 kts 230°
2026-05-06 06:02 36.85290 33.27144 26706 ft 382 kts 234°
2026-05-06 06:02 36.83295 33.23552 25996 ft 376 kts 234°
2026-05-06 06:02 36.81804 33.20917 25470 ft 372 kts 234°
2026-05-06 06:03 36.80806 33.19161 25119 ft 370 kts 234°
2026-05-06 06:03 36.79329 33.16542 24595 ft 367 kts 234°
2026-05-06 06:03 36.77375 33.13054 23896 ft 370 kts 234°
2026-05-06 06:03 36.76397 33.11303 23541 ft 367 kts 234°
2026-05-06 06:04 36.74954 33.08723 23021 ft 363 kts 234°
2026-05-06 06:04 36.73528 33.06171 22506 ft 359 kts 234°
2026-05-06 06:04 36.71644 33.02802 21825 ft 354 kts 234°
2026-05-06 06:04 36.70250 33.00308 21318 ft 350 kts 235°
2026-05-06 06:05 36.69331 32.98665 20984 ft 348 kts 235°
2026-05-06 06:05 36.67474 32.95347 20304 ft 351 kts 235°
2026-05-06 06:05 36.66107 32.92903 19802 ft 348 kts 235°
2026-05-06 06:05 36.64727 32.90439 19294 ft 344 kts 235°
2026-05-06 06:06 36.63829 32.88837 18964 ft 341 kts 235°
2026-05-06 06:06 36.62036 32.85640 18304 ft 336 kts 235°
2026-05-06 06:06 36.60703 32.83264 17811 ft 333 kts 236°
2026-05-06 06:06 36.59831 32.81712 17490 ft 332 kts 236°
2026-05-06 06:07 36.58049 32.78540 16830 ft 335 kts 236°
2026-05-06 06:07 36.57169 32.76975 16501 ft 333 kts 236°
2026-05-06 06:07 36.55856 32.74641 16011 ft 329 kts 236°
2026-05-06 06:07 36.54110 32.71539 15326 ft 326 kts 236°
2026-05-06 06:08 36.52833 32.69273 14839 ft 323 kts 236°
2026-05-06 06:08 36.51586 32.66962 14357 ft 320 kts 239°
2026-05-06 06:08 36.50534 32.64530 13879 ft 317 kts 246°
2026-05-06 06:08 36.49759 32.61984 13412 ft 317 kts 251°
2026-05-06 06:09 36.49050 32.59401 12931 ft 319 kts 251°
2026-05-06 06:09 36.48334 32.56836 12455 ft 315 kts 251°
2026-05-06 06:09 36.47619 32.54249 11977 ft 312 kts 251°
2026-05-06 06:09 36.46929 32.51727 11510 ft 309 kts 251°
2026-05-06 06:10 36.46239 32.49202 11042 ft 307 kts 251°
2026-05-06 06:10 36.45792 32.47566 10754 ft 304 kts 251°
2026-05-06 06:10 36.45120 32.45103 10475 ft 295 kts 251°
2026-05-06 06:10 36.44478 32.42751 10350 ft 282 kts 251°
2026-05-06 06:11 36.43660 32.39757 10196 ft 265 kts 251°
2026-05-06 06:11 36.43271 32.38334 10091 ft 259 kts 251°
2026-05-06 06:11 36.42516 32.35571 9708 ft 254 kts 251°
2026-05-06 06:11 36.41951 32.33508 9403 ft 251 kts 250°
2026-05-06 06:12 36.41392 32.31469 9101 ft 249 kts 250°
2026-05-06 06:12 36.40818 32.29375 8798 ft 257 kts 250°
2026-05-06 06:12 36.40253 32.27313 8487 ft 254 kts 250°
2026-05-06 06:12 36.39871 32.25921 8280 ft 253 kts 250°
2026-05-06 06:13 36.39336 32.23874 7975 ft 250 kts 256°
2026-05-06 06:13 36.39052 32.21737 7576 ft 253 kts 261°
2026-05-06 06:13 36.38808 32.19584 7185 ft 254 kts 260°
2026-05-06 06:13 36.38547 32.17413 6821 ft 254 kts 260°
2026-05-06 06:14 36.38290 32.15267 6527 ft 251 kts 260°
2026-05-06 06:14 36.38034 32.13125 6139 ft 252 kts 260°
2026-05-06 06:14 36.37775 32.10966 5782 ft 252 kts 260°
2026-05-06 06:14 36.37517 32.08822 5482 ft 249 kts 260°
2026-05-06 06:15 36.37050 32.06094 5142 ft 241 kts 242°
2026-05-06 06:15 36.35964 32.04612 4982 ft 229 kts 206°
2026-05-06 06:15 36.34984 32.04168 4757 ft 228 kts 190°
2026-05-06 06:15 36.32895 32.04236 4309 ft 228 kts 170°
2026-05-06 06:16 36.31852 32.04443 4083 ft 228 kts 171°
2026-05-06 06:16 36.30275 32.04726 3756 ft 228 kts 171°
2026-05-06 06:16 36.28295 32.05487 3316 ft 228 kts 141°
2026-05-06 06:16 36.27449 32.07074 3073 ft 221 kts 102°
2026-05-06 06:17 36.27434 32.08933 2804 ft 216 kts 82°
2026-05-06 06:17 36.27577 32.10150 2568 ft 214 kts 83°
2026-05-06 06:17 36.27833 32.12447 2313 ft 198 kts 82°
2026-05-06 06:17 36.27967 32.13575 2051 ft 195 kts 82°
2026-05-06 06:18 36.28162 32.15209 1675 ft 192 kts 82°
2026-05-06 06:18 36.28355 32.16818 1411 ft 184 kts 82°
2026-05-06 06:18 36.28625 32.18949 1351 ft 189 kts 81°
2026-05-06 06:18 36.28768 32.20021 1311 ft 191 kts 81°
2026-05-06 06:19 36.29042 32.22173 1282 ft 181 kts 82°
2026-05-06 06:19 36.29211 32.23676 1035 ft 171 kts 83°
2026-05-06 06:19 36.29302 32.24596 896 ft 154 kts 83°
2026-05-06 06:19 36.29497 32.26306 563 ft 150 kts 82°
2026-05-06 06:20 36.29635 32.27582 285 ft 147 kts 82°
2026-05-06 06:20 36.29738 32.28407 157 ft 147 kts 82°
2026-05-06 06:20 36.29902 32.29819 134 ft 80 kts 81°
2026-05-06 06:20 36.29948 32.30185 134 ft 22 kts 82°
2026-05-06 06:21 36.29930 32.30379 134 ft 22 kts 112°
2026-05-06 06:21 36.29854 32.30375 134 ft 13 kts 269°
2026-05-06 06:21 36.29842 32.30275 134 ft 12 kts 260°
2026-05-06 06:21 36.29834 32.30204 134 ft 11 kts 262°
2026-05-06 06:22 36.29805 32.30114 134 ft 3 kts 211°
2026-05-06 06:22 36.29803 32.30112 134 ft 0 kts 211°